Home > Weather > Pittsburgh > Past weeks

Flag for USA Past Weather in Pittsburgh, Pennsylvania, USA — Yesterday and Last 2 Weeks

Now
74 °F

Sunny.


Feels Like: 74 °F
Forecast: 71 / 89 °F
Wind: 7 mph from Southwest

Location: Allegheny County Airport

Current Time: Jun 27, 2016 at 11:04:38 AM

Latest Report: Jun 27, 2016 at 9:53 AM


Visibility: 10 mi

Pressure: 30.03 "Hg

Humidity: 82%

Dew Point: 68 °F

Location of PittsburghLocation

Past Weather in Pittsburgh — Graph

°F

Pittsburgh Temperature Yesterday

Maximum temperature yesterday: 87 °F (at 3:53 PM)
Minimum temperature yesterday: 66 °F (at 5:53 AM)
Average temperature yesterday: 77 °F

High & Low Weather Summary for the Past Weeks

 TemperatureHumidityPressure
High87 °F (Jun 26, 3:53 PM)97% (Jun 16, 1:53 AM)30.37 "Hg (Jun 16, 1:53 AM)
Low52 °F (Jun 13, 5:53 AM)23% (Jun 12, 2:53 PM)29.62 "Hg (Jun 16, 3:53 PM)
Average72 °F63%30.01 "Hg
* Reported Jun 12 9:53 AM — Jun 27 9:53 AM, Pittsburgh, Weather by CustomWeather, © 2016

Note: Actual official high and low records may vary slightly from our data, if they occured in-between our weather recording intervals... More about our weather records

Advertising

Pittsburgh Weather History for the Previous 24 Hours

Scroll right to see more
 ConditionsComfort  
Time TempWeatherWind HumidityBarometerVisibility
9:53 AM
Mon, Jun 27
74 °FSunny.7 mph82%30.03 "Hg10 mi
8:53 AM73 °FPartly sunny.6 mph81%30.03 "Hg10 mi
7:53 AM74 °FPassing clouds.9 mph76%30.02 "Hg10 mi
6:53 AM73 °FSunny.6 mph76%30.01 "Hg10 mi
5:53 AM72 °FPassing clouds.6 mph76%30.00 "Hg10 mi
4:53 AM70 °FPassing clouds.6 mph81%30.00 "Hg10 mi
3:53 AM72 °FPassing clouds.7 mph76%30.00 "Hg10 mi
2:53 AM73 °FPartly cloudy.9 mph74%30.01 "Hg10 mi
1:53 AM73 °FClear.8 mph74%30.03 "Hg10 mi
12:53 AM74 °FClear.8 mph71%30.04 "Hg10 mi
11:53 PM
Sun, Jun 26
74 °FClear.8 mph71%30.05 "Hg10 mi
10:53 PM76 °FClear.8 mph64%30.06 "Hg10 mi
9:53 PM80 °FClear.6 mph54%30.05 "Hg10 mi
8:53 PM80 °FSunny.6 mph54%30.02 "Hg10 mi
7:53 PM84 °FSunny.6 mph48%30.03 "Hg10 mi
6:53 PM85 °FSunny.8 mph45%30.03 "Hg10 mi
5:53 PM85 °FPassing clouds.9 mph42%30.06 "Hg10 mi
4:53 PM85 °FPassing clouds.8 mph43%30.08 "Hg10 mi
3:53 PM87 °FSunny.5 mph42%30.09 "Hg10 mi
2:53 PM85 °FPassing clouds.7 mph46%30.11 "Hg10 mi
1:53 PM85 °FPassing clouds.9 mph46%30.13 "Hg10 mi
12:53 PM84 °FPassing clouds.8 mph53%30.15 "Hg10 mi
11:53 AM82 °FSunny.5 mph58%30.16 "Hg10 mi
Weather by CustomWeather, © 2016

See weather overviewHow to use our weather pages